<?xml version="1.0" encoding="UTF-8" standalone="no" ?>
<gpx xmlns="http://www.topografix.com/GPX/1/1" creator="MapSource 6.11.6" version="1.1" xmlns:xsi="http://www.w3.org/2001/XMLSchema-instance" xsi:schemaLocation="http://www.topografix.com/GPX/1/1 http://www.topografix.com/GPX/1/1/gpx.xsd">

  <metadata>
    <link href="http://www.garmin.com">
      <text>Garmin International</text>
    </link>
    <time>2010-01-30T11:44:47Z</time>
    <bounds maxlat="50.698524" maxlon="6.406633" minlat="50.672479" minlon="6.362122"/>
  </metadata>

  <trk>
    <name>Eifeltäler</name>
    <extensions>
      <gpxx:TrackExtension xmlns:gpxx="http://www.garmin.com/xmlschemas/GpxExtensions/v3" xmlns:xsi="http://www.w3.org/2001/XMLSchema-instance" xsi:schemaLocation="http://www.garmin.com/xmlschemas/GpxExtensions/v3 http://www.garmin.com/xmlschemas/GpxExtensions/v3/GpxExtensionsv3.xsd">
        <gpxx:DisplayColor>White</gpxx:DisplayColor>
      </gpxx:TrackExtension>
    </extensions>
    <trkseg>
      <trkpt lat="50.685556" lon="6.373808">
        <ele>0.000000</ele>
        <time>2009-12-04T12:15:23Z</time>
      </trkpt>
      <trkpt lat="50.685950" lon="6.373626">
        <ele>0.000000</ele>
        <time>2009-12-04T12:15:23Z</time>
      </trkpt>
      <trkpt lat="50.686711" lon="6.373015">
        <ele>0.000000</ele>
        <time>2009-12-04T12:15:23Z</time>
      </trkpt>
      <trkpt lat="50.686827" lon="6.372703">
        <ele>0.000000</ele>
        <time>2009-12-04T12:15:23Z</time>
      </trkpt>
      <trkpt lat="50.686881" lon="6.371309">
        <ele>0.000000</ele>
        <time>2009-12-04T12:15:23Z</time>
      </trkpt>
      <trkpt lat="50.687004" lon="6.369635">
        <ele>0.000000</ele>
        <time>2009-12-04T12:15:23Z</time>
      </trkpt>
      <trkpt lat="50.687119" lon="6.368144">
        <ele>0.000000</ele>
        <time>2009-12-04T12:15:23Z</time>
      </trkpt>
      <trkpt lat="50.687473" lon="6.367028">
        <ele>0.000000</ele>
        <time>2009-12-04T12:15:23Z</time>
      </trkpt>
      <trkpt lat="50.687853" lon="6.365933">
        <ele>0.000000</ele>
        <time>2009-12-04T12:15:23Z</time>
      </trkpt>
      <trkpt lat="50.687894" lon="6.365687">
        <ele>0.000000</ele>
        <time>2009-12-04T12:15:23Z</time>
      </trkpt>
      <trkpt lat="50.688010" lon="6.365794">
        <ele>0.000000</ele>
        <time>2009-12-04T12:15:23Z</time>
      </trkpt>
      <trkpt lat="50.688132" lon="6.365987">
        <ele>0.000000</ele>
        <time>2009-12-04T12:15:23Z</time>
      </trkpt>
      <trkpt lat="50.688315" lon="6.366320">
        <ele>0.000000</ele>
        <time>2009-12-04T12:15:23Z</time>
      </trkpt>
      <trkpt lat="50.688343" lon="6.366663">
        <ele>0.000000</ele>
        <time>2009-12-04T12:15:23Z</time>
      </trkpt>
      <trkpt lat="50.688397" lon="6.367253">
        <ele>0.000000</ele>
        <time>2009-12-04T12:15:23Z</time>
      </trkpt>
      <trkpt lat="50.688465" lon="6.367940">
        <ele>0.000000</ele>
        <time>2009-12-04T12:15:23Z</time>
      </trkpt>
      <trkpt lat="50.688492" lon="6.368165">
        <ele>0.000000</ele>
        <time>2009-12-04T12:15:23Z</time>
      </trkpt>
      <trkpt lat="50.688546" lon="6.368401">
        <ele>0.000000</ele>
        <time>2009-12-04T12:15:23Z</time>
      </trkpt>
      <trkpt lat="50.688628" lon="6.368691">
        <ele>0.000000</ele>
        <time>2009-12-04T12:15:23Z</time>
      </trkpt>
      <trkpt lat="50.688778" lon="6.369174">
        <ele>0.000000</ele>
        <time>2009-12-04T12:15:23Z</time>
      </trkpt>
      <trkpt lat="50.688845" lon="6.369452">
        <ele>0.000000</ele>
        <time>2009-12-04T12:15:23Z</time>
      </trkpt>
      <trkpt lat="50.688920" lon="6.369635">
        <ele>0.000000</ele>
        <time>2009-12-04T12:15:23Z</time>
      </trkpt>
      <trkpt lat="50.688927" lon="6.369796">
        <ele>0.000000</ele>
        <time>2009-12-04T12:15:23Z</time>
      </trkpt>
      <trkpt lat="50.688927" lon="6.370075">
        <ele>0.000000</ele>
        <time>2009-12-04T12:15:23Z</time>
      </trkpt>
      <trkpt lat="50.689009" lon="6.370665">
        <ele>0.000000</ele>
        <time>2009-12-04T12:15:23Z</time>
      </trkpt>
      <trkpt lat="50.689090" lon="6.371394">
        <ele>0.000000</ele>
        <time>2009-12-04T12:15:23Z</time>
      </trkpt>
      <trkpt lat="50.689253" lon="6.372414">
        <ele>0.000000</ele>
        <time>2009-12-04T12:15:23Z</time>
      </trkpt>
      <trkpt lat="50.689287" lon="6.372843">
        <ele>0.000000</ele>
        <time>2009-12-04T12:15:23Z</time>
      </trkpt>
      <trkpt lat="50.689437" lon="6.373111">
        <ele>0.000000</ele>
        <time>2009-12-04T12:15:23Z</time>
      </trkpt>
      <trkpt lat="50.689586" lon="6.373433">
        <ele>0.000000</ele>
        <time>2009-12-04T12:15:23Z</time>
      </trkpt>
      <trkpt lat="50.689783" lon="6.373916">
        <ele>0.000000</ele>
        <time>2009-12-04T12:15:23Z</time>
      </trkpt>
      <trkpt lat="50.689987" lon="6.374420">
        <ele>0.000000</ele>
        <time>2009-12-04T12:15:23Z</time>
      </trkpt>
      <trkpt lat="50.690171" lon="6.374795">
        <ele>0.000000</ele>
        <time>2009-12-04T12:15:23Z</time>
      </trkpt>
      <trkpt lat="50.690497" lon="6.375235">
        <ele>0.000000</ele>
        <time>2009-12-04T12:15:23Z</time>
      </trkpt>
      <trkpt lat="50.690545" lon="6.375375">
        <ele>0.000000</ele>
        <time>2009-12-04T12:15:23Z</time>
      </trkpt>
      <trkpt lat="50.690749" lon="6.375986">
        <ele>0.000000</ele>
        <time>2009-12-04T12:15:23Z</time>
      </trkpt>
      <trkpt lat="50.690857" lon="6.376340">
        <ele>0.000000</ele>
        <time>2009-12-04T12:15:23Z</time>
      </trkpt>
      <trkpt lat="50.690817" lon="6.376566">
        <ele>0.000000</ele>
        <time>2009-12-04T12:15:23Z</time>
      </trkpt>
      <trkpt lat="50.690572" lon="6.377048">
        <ele>0.000000</ele>
        <time>2009-12-04T12:15:23Z</time>
      </trkpt>
      <trkpt lat="50.690715" lon="6.377402">
        <ele>0.000000</ele>
        <time>2009-12-04T12:15:23Z</time>
      </trkpt>
      <trkpt lat="50.690932" lon="6.377842">
        <ele>0.000000</ele>
        <time>2009-12-04T12:15:23Z</time>
      </trkpt>
      <trkpt lat="50.691068" lon="6.378078">
        <ele>0.000000</ele>
        <time>2009-12-04T12:15:23Z</time>
      </trkpt>
      <trkpt lat="50.691394" lon="6.378529">
        <ele>0.000000</ele>
        <time>2009-12-04T12:15:23Z</time>
      </trkpt>
      <trkpt lat="50.691972" lon="6.379130">
        <ele>0.000000</ele>
        <time>2009-12-04T12:15:23Z</time>
      </trkpt>
      <trkpt lat="50.692652" lon="6.379387">
        <ele>0.000000</ele>
        <time>2009-12-04T12:15:23Z</time>
      </trkpt>
      <trkpt lat="50.693304" lon="6.379623">
        <ele>0.000000</ele>
        <time>2009-12-04T12:15:23Z</time>
      </trkpt>
      <trkpt lat="50.693549" lon="6.379784">
        <ele>0.000000</ele>
        <time>2009-12-04T12:15:23Z</time>
      </trkpt>
      <trkpt lat="50.693732" lon="6.379881">
        <ele>0.000000</ele>
        <time>2009-12-04T12:15:23Z</time>
      </trkpt>
      <trkpt lat="50.693991" lon="6.379849">
        <ele>0.000000</ele>
        <time>2009-12-04T12:15:23Z</time>
      </trkpt>
      <trkpt lat="50.694065" lon="6.379870">
        <ele>0.000000</ele>
        <time>2009-12-04T12:15:23Z</time>
      </trkpt>
      <trkpt lat="50.694242" lon="6.380020">
        <ele>0.000000</ele>
        <time>2009-12-04T12:15:23Z</time>
      </trkpt>
      <trkpt lat="50.694371" lon="6.380181">
        <ele>0.000000</ele>
        <time>2009-12-04T12:15:23Z</time>
      </trkpt>
      <trkpt lat="50.694609" lon="6.380374">
        <ele>0.000000</ele>
        <time>2009-12-04T12:15:23Z</time>
      </trkpt>
      <trkpt lat="50.694806" lon="6.380675">
        <ele>0.000000</ele>
        <time>2009-12-04T12:15:23Z</time>
      </trkpt>
      <trkpt lat="50.695058" lon="6.380900">
        <ele>0.000000</ele>
        <time>2009-12-04T12:15:23Z</time>
      </trkpt>
      <trkpt lat="50.695214" lon="6.381201">
        <ele>0.000000</ele>
        <time>2009-12-04T12:15:23Z</time>
      </trkpt>
      <trkpt lat="50.695316" lon="6.381769">
        <ele>0.000000</ele>
        <time>2009-12-04T12:15:23Z</time>
      </trkpt>
      <trkpt lat="50.695493" lon="6.382370">
        <ele>0.000000</ele>
        <time>2009-12-04T12:15:23Z</time>
      </trkpt>
      <trkpt lat="50.695662" lon="6.382992">
        <ele>0.000000</ele>
        <time>2009-12-04T12:15:23Z</time>
      </trkpt>
      <trkpt lat="50.695662" lon="6.382990">
        <ele>0.000000</ele>
        <time>2009-12-04T12:15:23Z</time>
      </trkpt>
      <trkpt lat="50.696006" lon="6.383893">
        <ele>0.000000</ele>
        <time>2009-12-04T12:15:23Z</time>
      </trkpt>
      <trkpt lat="50.696447" lon="6.384784">
        <ele>0.000000</ele>
        <time>2009-12-04T12:15:23Z</time>
      </trkpt>
      <trkpt lat="50.696831" lon="6.385492">
        <ele>0.000000</ele>
        <time>2009-12-04T12:15:23Z</time>
      </trkpt>
      <trkpt lat="50.697158" lon="6.385970">
        <ele>0.000000</ele>
        <time>2009-12-04T12:15:23Z</time>
      </trkpt>
      <trkpt lat="50.697345" lon="6.386093">
        <ele>0.000000</ele>
        <time>2009-12-04T12:15:23Z</time>
      </trkpt>
      <trkpt lat="50.697786" lon="6.386554">
        <ele>0.000000</ele>
        <time>2009-12-04T12:15:23Z</time>
      </trkpt>
      <trkpt lat="50.697966" lon="6.386796">
        <ele>0.000000</ele>
        <time>2009-12-04T12:15:23Z</time>
      </trkpt>
      <trkpt lat="50.698194" lon="6.387568">
        <ele>0.000000</ele>
        <time>2009-12-04T12:15:23Z</time>
      </trkpt>
      <trkpt lat="50.698350" lon="6.388164">
        <ele>0.000000</ele>
        <time>2009-12-04T12:15:23Z</time>
      </trkpt>
      <trkpt lat="50.698388" lon="6.388593">
        <ele>0.000000</ele>
        <time>2009-12-04T12:15:23Z</time>
      </trkpt>
      <trkpt lat="50.698449" lon="6.389188">
        <ele>0.000000</ele>
        <time>2009-12-04T12:15:23Z</time>
      </trkpt>
      <trkpt lat="50.698374" lon="6.389993">
        <ele>0.000000</ele>
        <time>2009-12-04T12:15:23Z</time>
      </trkpt>
      <trkpt lat="50.698378" lon="6.390229">
        <ele>0.000000</ele>
        <time>2009-12-04T12:15:23Z</time>
      </trkpt>
      <trkpt lat="50.698466" lon="6.390862">
        <ele>0.000000</ele>
        <time>2009-12-04T12:15:23Z</time>
      </trkpt>
      <trkpt lat="50.698524" lon="6.391398">
        <ele>0.000000</ele>
        <time>2009-12-04T12:15:23Z</time>
      </trkpt>
      <trkpt lat="50.698490" lon="6.391516">
        <ele>0.000000</ele>
        <time>2009-12-04T12:15:23Z</time>
      </trkpt>
      <trkpt lat="50.698405" lon="6.391640">
        <ele>0.000000</ele>
        <time>2009-12-04T12:15:23Z</time>
      </trkpt>
      <trkpt lat="50.698323" lon="6.391650">
        <ele>0.000000</ele>
        <time>2009-12-04T12:15:23Z</time>
      </trkpt>
      <trkpt lat="50.698150" lon="6.391554">
        <ele>0.000000</ele>
        <time>2009-12-04T12:15:23Z</time>
      </trkpt>
      <trkpt lat="50.697222" lon="6.391221">
        <ele>0.000000</ele>
        <time>2009-12-04T12:15:23Z</time>
      </trkpt>
      <trkpt lat="50.696825" lon="6.390953">
        <ele>0.000000</ele>
        <time>2009-12-04T12:15:23Z</time>
      </trkpt>
      <trkpt lat="50.696797" lon="6.390937">
        <ele>0.000000</ele>
        <time>2009-12-04T12:15:23Z</time>
      </trkpt>
      <trkpt lat="50.696295" lon="6.390830">
        <ele>0.000000</ele>
        <time>2009-12-04T12:15:23Z</time>
      </trkpt>
      <trkpt lat="50.695860" lon="6.391012">
        <ele>0.000000</ele>
        <time>2009-12-04T12:15:23Z</time>
      </trkpt>
      <trkpt lat="50.695119" lon="6.391945">
        <ele>0.000000</ele>
        <time>2009-12-04T12:15:23Z</time>
      </trkpt>
      <trkpt lat="50.695000" lon="6.392434">
        <ele>0.000000</ele>
        <time>2009-12-04T12:15:23Z</time>
      </trkpt>
      <trkpt lat="50.694915" lon="6.392616">
        <ele>0.000000</ele>
        <time>2009-12-04T12:15:23Z</time>
      </trkpt>
      <trkpt lat="50.694759" lon="6.392825">
        <ele>0.000000</ele>
        <time>2009-12-04T12:15:23Z</time>
      </trkpt>
      <trkpt lat="50.695007" lon="6.393474">
        <ele>0.000000</ele>
        <time>2009-12-04T12:15:23Z</time>
      </trkpt>
      <trkpt lat="50.695149" lon="6.393785">
        <ele>0.000000</ele>
        <time>2009-12-04T12:15:23Z</time>
      </trkpt>
      <trkpt lat="50.695190" lon="6.393844">
        <ele>0.000000</ele>
        <time>2009-12-04T12:15:23Z</time>
      </trkpt>
      <trkpt lat="50.695139" lon="6.393941">
        <ele>0.000000</ele>
        <time>2009-12-04T12:15:23Z</time>
      </trkpt>
      <trkpt lat="50.694952" lon="6.394472">
        <ele>0.000000</ele>
        <time>2009-12-04T12:15:23Z</time>
      </trkpt>
      <trkpt lat="50.694674" lon="6.394939">
        <ele>0.000000</ele>
        <time>2009-12-04T12:15:23Z</time>
      </trkpt>
      <trkpt lat="50.694517" lon="6.395422">
        <ele>0.000000</ele>
        <time>2009-12-04T12:15:23Z</time>
      </trkpt>
      <trkpt lat="50.694415" lon="6.395733">
        <ele>0.000000</ele>
        <time>2009-12-04T12:15:23Z</time>
      </trkpt>
      <trkpt lat="50.694283" lon="6.396055">
        <ele>0.000000</ele>
        <time>2009-12-04T12:15:23Z</time>
      </trkpt>
      <trkpt lat="50.694174" lon="6.396334">
        <ele>0.000000</ele>
        <time>2009-12-04T12:15:23Z</time>
      </trkpt>
      <trkpt lat="50.693933" lon="6.396768">
        <ele>0.000000</ele>
        <time>2009-12-04T12:15:23Z</time>
      </trkpt>
      <trkpt lat="50.693760" lon="6.397063">
        <ele>0.000000</ele>
        <time>2009-12-04T12:15:23Z</time>
      </trkpt>
      <trkpt lat="50.693709" lon="6.397122">
        <ele>0.000000</ele>
        <time>2009-12-04T12:15:23Z</time>
      </trkpt>
      <trkpt lat="50.693586" lon="6.397219">
        <ele>0.000000</ele>
        <time>2009-12-04T12:15:23Z</time>
      </trkpt>
      <trkpt lat="50.693233" lon="6.397449">
        <ele>0.000000</ele>
        <time>2009-12-04T12:15:23Z</time>
      </trkpt>
      <trkpt lat="50.693070" lon="6.397583">
        <ele>0.000000</ele>
        <time>2009-12-04T12:15:23Z</time>
      </trkpt>
      <trkpt lat="50.693032" lon="6.397664">
        <ele>0.000000</ele>
        <time>2009-12-04T12:15:23Z</time>
      </trkpt>
      <trkpt lat="50.692971" lon="6.397868">
        <ele>0.000000</ele>
        <time>2009-12-04T12:15:23Z</time>
      </trkpt>
      <trkpt lat="50.692930" lon="6.398104">
        <ele>0.000000</ele>
        <time>2009-12-04T12:15:23Z</time>
      </trkpt>
      <trkpt lat="50.692886" lon="6.398184">
        <ele>0.000000</ele>
        <time>2009-12-04T12:15:23Z</time>
      </trkpt>
      <trkpt lat="50.692777" lon="6.398340">
        <ele>0.000000</ele>
        <time>2009-12-04T12:15:23Z</time>
      </trkpt>
      <trkpt lat="50.692716" lon="6.398420">
        <ele>0.000000</ele>
        <time>2009-12-04T12:15:23Z</time>
      </trkpt>
      <trkpt lat="50.692679" lon="6.398533">
        <ele>0.000000</ele>
        <time>2009-12-04T12:15:23Z</time>
      </trkpt>
      <trkpt lat="50.692672" lon="6.398694">
        <ele>0.000000</ele>
        <time>2009-12-04T12:15:23Z</time>
      </trkpt>
      <trkpt lat="50.692682" lon="6.398898">
        <ele>0.000000</ele>
        <time>2009-12-04T12:15:23Z</time>
      </trkpt>
      <trkpt lat="50.692631" lon="6.399118">
        <ele>0.000000</ele>
        <time>2009-12-04T12:15:23Z</time>
      </trkpt>
      <trkpt lat="50.692519" lon="6.399568">
        <ele>0.000000</ele>
        <time>2009-12-04T12:15:23Z</time>
      </trkpt>
      <trkpt lat="50.692394" lon="6.399960">
        <ele>0.000000</ele>
        <time>2009-12-04T12:15:23Z</time>
      </trkpt>
      <trkpt lat="50.692387" lon="6.400094">
        <ele>0.000000</ele>
        <time>2009-12-04T12:15:23Z</time>
      </trkpt>
      <trkpt lat="50.692383" lon="6.400470">
        <ele>0.000000</ele>
        <time>2009-12-04T12:15:23Z</time>
      </trkpt>
      <trkpt lat="50.692394" lon="6.400850">
        <ele>0.000000</ele>
        <time>2009-12-04T12:15:23Z</time>
      </trkpt>
      <trkpt lat="50.692417" lon="6.401274">
        <ele>0.000000</ele>
        <time>2009-12-04T12:15:23Z</time>
      </trkpt>
      <trkpt lat="50.692414" lon="6.401671">
        <ele>0.000000</ele>
        <time>2009-12-04T12:15:23Z</time>
      </trkpt>
      <trkpt lat="50.692339" lon="6.402090">
        <ele>0.000000</ele>
        <time>2009-12-04T12:15:23Z</time>
      </trkpt>
      <trkpt lat="50.692312" lon="6.402605">
        <ele>0.000000</ele>
        <time>2009-12-04T12:15:23Z</time>
      </trkpt>
      <trkpt lat="50.692285" lon="6.402867">
        <ele>0.000000</ele>
        <time>2009-12-04T12:15:23Z</time>
      </trkpt>
      <trkpt lat="50.692305" lon="6.403130">
        <ele>0.000000</ele>
        <time>2009-12-04T12:15:23Z</time>
      </trkpt>
      <trkpt lat="50.692359" lon="6.403495">
        <ele>0.000000</ele>
        <time>2009-12-04T12:15:23Z</time>
      </trkpt>
      <trkpt lat="50.692414" lon="6.403715">
        <ele>0.000000</ele>
        <time>2009-12-04T12:15:23Z</time>
      </trkpt>
      <trkpt lat="50.692485" lon="6.403881">
        <ele>0.000000</ele>
        <time>2009-12-04T12:15:23Z</time>
      </trkpt>
      <trkpt lat="50.692614" lon="6.403989">
        <ele>0.000000</ele>
        <time>2009-12-04T12:15:23Z</time>
      </trkpt>
      <trkpt lat="50.692913" lon="6.404160">
        <ele>0.000000</ele>
        <time>2009-12-04T12:15:23Z</time>
      </trkpt>
      <trkpt lat="50.692975" lon="6.404225">
        <ele>0.000000</ele>
        <time>2009-12-04T12:15:23Z</time>
      </trkpt>
      <trkpt lat="50.693029" lon="6.404380">
        <ele>0.000000</ele>
        <time>2009-12-04T12:15:23Z</time>
      </trkpt>
      <trkpt lat="50.693005" lon="6.404471">
        <ele>0.000000</ele>
        <time>2009-12-04T12:15:23Z</time>
      </trkpt>
      <trkpt lat="50.692937" lon="6.404541">
        <ele>0.000000</ele>
        <time>2009-12-04T12:15:23Z</time>
      </trkpt>
      <trkpt lat="50.692900" lon="6.404541">
        <ele>0.000000</ele>
        <time>2009-12-04T12:15:23Z</time>
      </trkpt>
      <trkpt lat="50.692812" lon="6.404520">
        <ele>0.000000</ele>
        <time>2009-12-04T12:15:23Z</time>
      </trkpt>
      <trkpt lat="50.692580" lon="6.404600">
        <ele>0.000000</ele>
        <time>2009-12-04T12:15:23Z</time>
      </trkpt>
      <trkpt lat="50.692485" lon="6.404697">
        <ele>0.000000</ele>
        <time>2009-12-04T12:15:23Z</time>
      </trkpt>
      <trkpt lat="50.692329" lon="6.404777">
        <ele>0.000000</ele>
        <time>2009-12-04T12:15:23Z</time>
      </trkpt>
      <trkpt lat="50.692237" lon="6.404927">
        <ele>0.000000</ele>
        <time>2009-12-04T12:15:23Z</time>
      </trkpt>
      <trkpt lat="50.692111" lon="6.405180">
        <ele>0.000000</ele>
        <time>2009-12-04T12:15:23Z</time>
      </trkpt>
      <trkpt lat="50.692016" lon="6.405362">
        <ele>0.000000</ele>
        <time>2009-12-04T12:15:23Z</time>
      </trkpt>
      <trkpt lat="50.691928" lon="6.405517">
        <ele>0.000000</ele>
        <time>2009-12-04T12:15:23Z</time>
      </trkpt>
      <trkpt lat="50.691806" lon="6.405673">
        <ele>0.000000</ele>
        <time>2009-12-04T12:15:23Z</time>
      </trkpt>
      <trkpt lat="50.691527" lon="6.405877">
        <ele>0.000000</ele>
        <time>2009-12-04T12:15:23Z</time>
      </trkpt>
      <trkpt lat="50.690586" lon="6.406429">
        <ele>0.000000</ele>
        <time>2009-12-04T12:15:23Z</time>
      </trkpt>
      <trkpt lat="50.690256" lon="6.406499">
        <ele>0.000000</ele>
        <time>2009-12-04T12:15:23Z</time>
      </trkpt>
      <trkpt lat="50.689199" lon="6.406633">
        <ele>0.000000</ele>
        <time>2009-12-04T12:15:23Z</time>
      </trkpt>
      <trkpt lat="50.688788" lon="6.406612">
        <ele>0.000000</ele>
        <time>2009-12-04T12:15:23Z</time>
      </trkpt>
      <trkpt lat="50.688659" lon="6.406462">
        <ele>0.000000</ele>
        <time>2009-12-04T12:15:23Z</time>
      </trkpt>
      <trkpt lat="50.688699" lon="6.406354">
        <ele>0.000000</ele>
        <time>2009-12-04T12:15:23Z</time>
      </trkpt>
      <trkpt lat="50.688713" lon="6.406231">
        <ele>0.000000</ele>
        <time>2009-12-04T12:15:23Z</time>
      </trkpt>
      <trkpt lat="50.688665" lon="6.405914">
        <ele>0.000000</ele>
        <time>2009-12-04T12:15:23Z</time>
      </trkpt>
      <trkpt lat="50.688618" lon="6.405716">
        <ele>0.000000</ele>
        <time>2009-12-04T12:15:23Z</time>
      </trkpt>
      <trkpt lat="50.688540" lon="6.405512">
        <ele>0.000000</ele>
        <time>2009-12-04T12:15:23Z</time>
      </trkpt>
      <trkpt lat="50.688322" lon="6.405131">
        <ele>0.000000</ele>
        <time>2009-12-04T12:15:23Z</time>
      </trkpt>
      <trkpt lat="50.687935" lon="6.404504">
        <ele>0.000000</ele>
        <time>2009-12-04T12:15:23Z</time>
      </trkpt>
      <trkpt lat="50.687557" lon="6.404032">
        <ele>0.000000</ele>
        <time>2009-12-04T12:15:23Z</time>
      </trkpt>
      <trkpt lat="50.687190" lon="6.403672">
        <ele>0.000000</ele>
        <time>2009-12-04T12:15:23Z</time>
      </trkpt>
      <trkpt lat="50.686762" lon="6.403307">
        <ele>0.000000</ele>
        <time>2009-12-04T12:15:23Z</time>
      </trkpt>
      <trkpt lat="50.686517" lon="6.403130">
        <ele>0.000000</ele>
        <time>2009-12-04T12:15:23Z</time>
      </trkpt>
      <trkpt lat="50.686473" lon="6.403066">
        <ele>0.000000</ele>
        <time>2009-12-04T12:15:23Z</time>
      </trkpt>
      <trkpt lat="50.686259" lon="6.402771">
        <ele>0.000000</ele>
        <time>2009-12-04T12:15:23Z</time>
      </trkpt>
      <trkpt lat="50.685977" lon="6.402251">
        <ele>0.000000</ele>
        <time>2009-12-04T12:15:23Z</time>
      </trkpt>
      <trkpt lat="50.685862" lon="6.401913">
        <ele>0.000000</ele>
        <time>2009-12-04T12:15:23Z</time>
      </trkpt>
      <trkpt lat="50.685719" lon="6.401044">
        <ele>0.000000</ele>
        <time>2009-12-04T12:15:23Z</time>
      </trkpt>
      <trkpt lat="50.685688" lon="6.400673">
        <ele>0.000000</ele>
        <time>2009-12-04T12:15:23Z</time>
      </trkpt>
      <trkpt lat="50.685654" lon="6.400427">
        <ele>0.000000</ele>
        <time>2009-12-04T12:15:23Z</time>
      </trkpt>
      <trkpt lat="50.685804" lon="6.399584">
        <ele>0.000000</ele>
        <time>2009-12-04T12:15:23Z</time>
      </trkpt>
      <trkpt lat="50.685906" lon="6.398946">
        <ele>0.000000</ele>
        <time>2009-12-04T12:15:23Z</time>
      </trkpt>
      <trkpt lat="50.685960" lon="6.398710">
        <ele>0.000000</ele>
        <time>2009-12-04T12:15:23Z</time>
      </trkpt>
      <trkpt lat="50.686076" lon="6.398034">
        <ele>0.000000</ele>
        <time>2009-12-04T12:15:23Z</time>
      </trkpt>
      <trkpt lat="50.686133" lon="6.397369">
        <ele>0.000000</ele>
        <time>2009-12-04T12:15:23Z</time>
      </trkpt>
      <trkpt lat="50.686018" lon="6.396537">
        <ele>0.000000</ele>
        <time>2009-12-04T12:15:23Z</time>
      </trkpt>
      <trkpt lat="50.685984" lon="6.396398">
        <ele>0.000000</ele>
        <time>2009-12-04T12:15:23Z</time>
      </trkpt>
      <trkpt lat="50.685824" lon="6.395963">
        <ele>0.000000</ele>
        <time>2009-12-04T12:15:23Z</time>
      </trkpt>
      <trkpt lat="50.685790" lon="6.395674">
        <ele>0.000000</ele>
        <time>2009-12-04T12:15:23Z</time>
      </trkpt>
      <trkpt lat="50.685746" lon="6.395475">
        <ele>0.000000</ele>
        <time>2009-12-04T12:15:23Z</time>
      </trkpt>
      <trkpt lat="50.685729" lon="6.395282">
        <ele>0.000000</ele>
        <time>2009-12-04T12:15:23Z</time>
      </trkpt>
      <trkpt lat="50.685783" lon="6.395100">
        <ele>0.000000</ele>
        <time>2009-12-04T12:15:23Z</time>
      </trkpt>
      <trkpt lat="50.685743" lon="6.394880">
        <ele>0.000000</ele>
        <time>2009-12-04T12:15:23Z</time>
      </trkpt>
      <trkpt lat="50.685539" lon="6.394268">
        <ele>0.000000</ele>
        <time>2009-12-04T12:15:23Z</time>
      </trkpt>
      <trkpt lat="50.685437" lon="6.393946">
        <ele>0.000000</ele>
        <time>2009-12-04T12:15:23Z</time>
      </trkpt>
      <trkpt lat="50.685294" lon="6.393678">
        <ele>0.000000</ele>
        <time>2009-12-04T12:15:23Z</time>
      </trkpt>
      <trkpt lat="50.685212" lon="6.393721">
        <ele>0.000000</ele>
        <time>2009-12-04T12:15:23Z</time>
      </trkpt>
      <trkpt lat="50.685012" lon="6.393710">
        <ele>0.000000</ele>
        <time>2009-12-04T12:15:23Z</time>
      </trkpt>
      <trkpt lat="50.684852" lon="6.393630">
        <ele>0.000000</ele>
        <time>2009-12-04T12:15:23Z</time>
      </trkpt>
      <trkpt lat="50.684556" lon="6.393389">
        <ele>0.000000</ele>
        <time>2009-12-04T12:15:23Z</time>
      </trkpt>
      <trkpt lat="50.684223" lon="6.393185">
        <ele>0.000000</ele>
        <time>2009-12-04T12:15:23Z</time>
      </trkpt>
      <trkpt lat="50.683958" lon="6.393061">
        <ele>0.000000</ele>
        <time>2009-12-04T12:15:23Z</time>
      </trkpt>
      <trkpt lat="50.683418" lon="6.392906">
        <ele>0.000000</ele>
        <time>2009-12-04T12:15:23Z</time>
      </trkpt>
      <trkpt lat="50.683098" lon="6.392804">
        <ele>0.000000</ele>
        <time>2009-12-04T12:15:23Z</time>
      </trkpt>
      <trkpt lat="50.682520" lon="6.392675">
        <ele>0.000000</ele>
        <time>2009-12-04T12:15:23Z</time>
      </trkpt>
      <trkpt lat="50.682435" lon="6.392675">
        <ele>0.000000</ele>
        <time>2009-12-04T12:15:23Z</time>
      </trkpt>
      <trkpt lat="50.682089" lon="6.392798">
        <ele>0.000000</ele>
        <time>2009-12-04T12:15:23Z</time>
      </trkpt>
      <trkpt lat="50.682041" lon="6.392798">
        <ele>0.000000</ele>
        <time>2009-12-04T12:15:23Z</time>
      </trkpt>
      <trkpt lat="50.681902" lon="6.392761">
        <ele>0.000000</ele>
        <time>2009-12-04T12:15:23Z</time>
      </trkpt>
      <trkpt lat="50.681749" lon="6.392713">
        <ele>0.000000</ele>
        <time>2009-12-04T12:15:23Z</time>
      </trkpt>
      <trkpt lat="50.681480" lon="6.392503">
        <ele>0.000000</ele>
        <time>2009-12-04T12:15:23Z</time>
      </trkpt>
      <trkpt lat="50.681402" lon="6.392444">
        <ele>0.000000</ele>
        <time>2009-12-04T12:15:23Z</time>
      </trkpt>
      <trkpt lat="50.681327" lon="6.392332">
        <ele>0.000000</ele>
        <time>2009-12-04T12:15:23Z</time>
      </trkpt>
      <trkpt lat="50.681259" lon="6.392133">
        <ele>0.000000</ele>
        <time>2009-12-04T12:15:23Z</time>
      </trkpt>
      <trkpt lat="50.681208" lon="6.391897">
        <ele>0.000000</ele>
        <time>2009-12-04T12:15:23Z</time>
      </trkpt>
      <trkpt lat="50.681208" lon="6.391758">
        <ele>0.000000</ele>
        <time>2009-12-04T12:15:23Z</time>
      </trkpt>
      <trkpt lat="50.681215" lon="6.391693">
        <ele>0.000000</ele>
        <time>2009-12-04T12:15:23Z</time>
      </trkpt>
      <trkpt lat="50.681239" lon="6.391597">
        <ele>0.000000</ele>
        <time>2009-12-04T12:15:23Z</time>
      </trkpt>
      <trkpt lat="50.681423" lon="6.391243">
        <ele>0.000000</ele>
        <time>2009-12-04T12:15:23Z</time>
      </trkpt>
      <trkpt lat="50.681531" lon="6.390921">
        <ele>0.000000</ele>
        <time>2009-12-04T12:15:23Z</time>
      </trkpt>
      <trkpt lat="50.681725" lon="6.390599">
        <ele>0.000000</ele>
        <time>2009-12-04T12:15:23Z</time>
      </trkpt>
      <trkpt lat="50.681742" lon="6.390551">
        <ele>0.000000</ele>
        <time>2009-12-04T12:15:23Z</time>
      </trkpt>
      <trkpt lat="50.681919" lon="6.389896">
        <ele>0.000000</ele>
        <time>2009-12-04T12:15:23Z</time>
      </trkpt>
      <trkpt lat="50.681990" lon="6.389757">
        <ele>0.000000</ele>
        <time>2009-12-04T12:15:23Z</time>
      </trkpt>
      <trkpt lat="50.682055" lon="6.389467">
        <ele>0.000000</ele>
        <time>2009-12-04T12:15:23Z</time>
      </trkpt>
      <trkpt lat="50.682085" lon="6.389301">
        <ele>0.000000</ele>
        <time>2009-12-04T12:15:23Z</time>
      </trkpt>
      <trkpt lat="50.682157" lon="6.388759">
        <ele>0.000000</ele>
        <time>2009-12-04T12:15:23Z</time>
      </trkpt>
      <trkpt lat="50.682211" lon="6.388485">
        <ele>0.000000</ele>
        <time>2009-12-04T12:15:23Z</time>
      </trkpt>
      <trkpt lat="50.682252" lon="6.388303">
        <ele>0.000000</ele>
        <time>2009-12-04T12:15:23Z</time>
      </trkpt>
      <trkpt lat="50.682245" lon="6.388239">
        <ele>0.000000</ele>
        <time>2009-12-04T12:15:23Z</time>
      </trkpt>
      <trkpt lat="50.682238" lon="6.388164">
        <ele>0.000000</ele>
        <time>2009-12-04T12:15:23Z</time>
      </trkpt>
      <trkpt lat="50.682201" lon="6.388083">
        <ele>0.000000</ele>
        <time>2009-12-04T12:15:23Z</time>
      </trkpt>
      <trkpt lat="50.682136" lon="6.388083">
        <ele>0.000000</ele>
        <time>2009-12-04T12:15:23Z</time>
      </trkpt>
      <trkpt lat="50.682024" lon="6.388056">
        <ele>0.000000</ele>
        <time>2009-12-04T12:15:23Z</time>
      </trkpt>
      <trkpt lat="50.681980" lon="6.387987">
        <ele>0.000000</ele>
        <time>2009-12-04T12:15:23Z</time>
      </trkpt>
      <trkpt lat="50.681902" lon="6.387783">
        <ele>0.000000</ele>
        <time>2009-12-04T12:15:23Z</time>
      </trkpt>
      <trkpt lat="50.681776" lon="6.387525">
        <ele>0.000000</ele>
        <time>2009-12-04T12:15:23Z</time>
      </trkpt>
      <trkpt lat="50.681555" lon="6.387230">
        <ele>0.000000</ele>
        <time>2009-12-04T12:15:23Z</time>
      </trkpt>
      <trkpt lat="50.681440" lon="6.387053">
        <ele>0.000000</ele>
        <time>2009-12-04T12:15:23Z</time>
      </trkpt>
      <trkpt lat="50.681249" lon="6.386645">
        <ele>0.000000</ele>
        <time>2009-12-04T12:15:23Z</time>
      </trkpt>
      <trkpt lat="50.681191" lon="6.386576">
        <ele>0.000000</ele>
        <time>2009-12-04T12:15:23Z</time>
      </trkpt>
      <trkpt lat="50.680988" lon="6.386463">
        <ele>0.000000</ele>
        <time>2009-12-04T12:15:23Z</time>
      </trkpt>
      <trkpt lat="50.680926" lon="6.386425">
        <ele>0.000000</ele>
        <time>2009-12-04T12:15:23Z</time>
      </trkpt>
      <trkpt lat="50.680838" lon="6.386372">
        <ele>0.000000</ele>
        <time>2009-12-04T12:15:23Z</time>
      </trkpt>
      <trkpt lat="50.680733" lon="6.386340">
        <ele>0.000000</ele>
        <time>2009-12-04T12:15:23Z</time>
      </trkpt>
      <trkpt lat="50.680644" lon="6.386340">
        <ele>0.000000</ele>
        <time>2009-12-04T12:15:23Z</time>
      </trkpt>
      <trkpt lat="50.680508" lon="6.386350">
        <ele>0.000000</ele>
        <time>2009-12-04T12:15:23Z</time>
      </trkpt>
      <trkpt lat="50.680430" lon="6.386318">
        <ele>0.000000</ele>
        <time>2009-12-04T12:15:23Z</time>
      </trkpt>
      <trkpt lat="50.680355" lon="6.386270">
        <ele>0.000000</ele>
        <time>2009-12-04T12:15:23Z</time>
      </trkpt>
      <trkpt lat="50.680274" lon="6.386168">
        <ele>0.000000</ele>
        <time>2009-12-04T12:15:23Z</time>
      </trkpt>
      <trkpt lat="50.680213" lon="6.386104">
        <ele>0.000000</ele>
        <time>2009-12-04T12:15:23Z</time>
      </trkpt>
      <trkpt lat="50.680131" lon="6.386120">
        <ele>0.000000</ele>
        <time>2009-12-04T12:15:23Z</time>
      </trkpt>
      <trkpt lat="50.679995" lon="6.386232">
        <ele>0.000000</ele>
        <time>2009-12-04T12:15:23Z</time>
      </trkpt>
      <trkpt lat="50.679852" lon="6.386442">
        <ele>0.000000</ele>
        <time>2009-12-04T12:15:23Z</time>
      </trkpt>
      <trkpt lat="50.679774" lon="6.386544">
        <ele>0.000000</ele>
        <time>2009-12-04T12:15:23Z</time>
      </trkpt>
      <trkpt lat="50.679689" lon="6.386603">
        <ele>0.000000</ele>
        <time>2009-12-04T12:15:23Z</time>
      </trkpt>
      <trkpt lat="50.679492" lon="6.386688">
        <ele>0.000000</ele>
        <time>2009-12-04T12:15:23Z</time>
      </trkpt>
      <trkpt lat="50.679193" lon="6.386779">
        <ele>0.000000</ele>
        <time>2009-12-04T12:15:23Z</time>
      </trkpt>
      <trkpt lat="50.678832" lon="6.386833">
        <ele>0.000000</ele>
        <time>2009-12-04T12:15:23Z</time>
      </trkpt>
      <trkpt lat="50.678509" lon="6.386908">
        <ele>0.000000</ele>
        <time>2009-12-04T12:15:23Z</time>
      </trkpt>
      <trkpt lat="50.678034" lon="6.386994">
        <ele>0.000000</ele>
        <time>2009-12-04T12:15:23Z</time>
      </trkpt>
      <trkpt lat="50.677622" lon="6.387091">
        <ele>0.000000</ele>
        <time>2009-12-04T12:15:23Z</time>
      </trkpt>
      <trkpt lat="50.677442" lon="6.387085">
        <ele>0.000000</ele>
        <time>2009-12-04T12:15:23Z</time>
      </trkpt>
      <trkpt lat="50.677235" lon="6.387016">
        <ele>0.000000</ele>
        <time>2009-12-04T12:15:23Z</time>
      </trkpt>
      <trkpt lat="50.677038" lon="6.386887">
        <ele>0.000000</ele>
        <time>2009-12-04T12:15:23Z</time>
      </trkpt>
      <trkpt lat="50.676630" lon="6.386576">
        <ele>0.000000</ele>
        <time>2009-12-04T12:15:23Z</time>
      </trkpt>
      <trkpt lat="50.676412" lon="6.386458">
        <ele>0.000000</ele>
        <time>2009-12-04T12:15:23Z</time>
      </trkpt>
      <trkpt lat="50.676208" lon="6.386345">
        <ele>0.000000</ele>
        <time>2009-12-04T12:15:23Z</time>
      </trkpt>
      <trkpt lat="50.676144" lon="6.386313">
        <ele>0.000000</ele>
        <time>2009-12-04T12:15:23Z</time>
      </trkpt>
      <trkpt lat="50.675691" lon="6.386399">
        <ele>0.000000</ele>
        <time>2009-12-04T12:15:23Z</time>
      </trkpt>
      <trkpt lat="50.675409" lon="6.386388">
        <ele>0.000000</ele>
        <time>2009-12-04T12:15:23Z</time>
      </trkpt>
      <trkpt lat="50.674950" lon="6.386485">
        <ele>0.000000</ele>
        <time>2009-12-04T12:15:23Z</time>
      </trkpt>
      <trkpt lat="50.674634" lon="6.386635">
        <ele>0.000000</ele>
        <time>2009-12-04T12:15:23Z</time>
      </trkpt>
      <trkpt lat="50.674141" lon="6.386860">
        <ele>0.000000</ele>
        <time>2009-12-04T12:15:23Z</time>
      </trkpt>
      <trkpt lat="50.673964" lon="6.386919">
        <ele>0.000000</ele>
        <time>2009-12-04T12:15:23Z</time>
      </trkpt>
      <trkpt lat="50.673754" lon="6.386914">
        <ele>0.000000</ele>
        <time>2009-12-04T12:15:23Z</time>
      </trkpt>
      <trkpt lat="50.673482" lon="6.386758">
        <ele>0.000000</ele>
        <time>2009-12-04T12:15:23Z</time>
      </trkpt>
      <trkpt lat="50.673281" lon="6.386672">
        <ele>0.000000</ele>
        <time>2009-12-04T12:15:23Z</time>
      </trkpt>
      <trkpt lat="50.673166" lon="6.386576">
        <ele>0.000000</ele>
        <time>2009-12-04T12:15:23Z</time>
      </trkpt>
      <trkpt lat="50.672968" lon="6.386409">
        <ele>0.000000</ele>
        <time>2009-12-04T12:15:23Z</time>
      </trkpt>
      <trkpt lat="50.672761" lon="6.386168">
        <ele>0.000000</ele>
        <time>2009-12-04T12:15:23Z</time>
      </trkpt>
      <trkpt lat="50.672635" lon="6.385970">
        <ele>0.000000</ele>
        <time>2009-12-04T12:15:23Z</time>
      </trkpt>
      <trkpt lat="50.672479" lon="6.385680">
        <ele>0.000000</ele>
        <time>2009-12-04T12:15:23Z</time>
      </trkpt>
      <trkpt lat="50.672479" lon="6.385422">
        <ele>0.000000</ele>
        <time>2009-12-04T12:15:23Z</time>
      </trkpt>
      <trkpt lat="50.672503" lon="6.385170">
        <ele>0.000000</ele>
        <time>2009-12-04T12:15:23Z</time>
      </trkpt>
      <trkpt lat="50.672564" lon="6.385020">
        <ele>0.000000</ele>
        <time>2009-12-04T12:15:23Z</time>
      </trkpt>
      <trkpt lat="50.672785" lon="6.384848">
        <ele>0.000000</ele>
        <time>2009-12-04T12:15:23Z</time>
      </trkpt>
      <trkpt lat="50.673101" lon="6.384231">
        <ele>0.000000</ele>
        <time>2009-12-04T12:15:23Z</time>
      </trkpt>
      <trkpt lat="50.673199" lon="6.384017">
        <ele>0.000000</ele>
        <time>2009-12-04T12:15:23Z</time>
      </trkpt>
      <trkpt lat="50.673247" lon="6.383877">
        <ele>0.000000</ele>
        <time>2009-12-04T12:15:23Z</time>
      </trkpt>
      <trkpt lat="50.673261" lon="6.383797">
        <ele>0.000000</ele>
        <time>2009-12-04T12:15:23Z</time>
      </trkpt>
      <trkpt lat="50.673417" lon="6.383770">
        <ele>0.000000</ele>
        <time>2009-12-04T12:15:23Z</time>
      </trkpt>
      <trkpt lat="50.673509" lon="6.383282">
        <ele>0.000000</ele>
        <time>2009-12-04T12:15:23Z</time>
      </trkpt>
      <trkpt lat="50.673631" lon="6.382611">
        <ele>0.000000</ele>
        <time>2009-12-04T12:15:23Z</time>
      </trkpt>
      <trkpt lat="50.673696" lon="6.382134">
        <ele>0.000000</ele>
        <time>2009-12-04T12:15:23Z</time>
      </trkpt>
      <trkpt lat="50.673791" lon="6.381732">
        <ele>0.000000</ele>
        <time>2009-12-04T12:15:23Z</time>
      </trkpt>
      <trkpt lat="50.673927" lon="6.381281">
        <ele>0.000000</ele>
        <time>2009-12-04T12:15:23Z</time>
      </trkpt>
      <trkpt lat="50.673934" lon="6.380959">
        <ele>0.000000</ele>
        <time>2009-12-04T12:15:23Z</time>
      </trkpt>
      <trkpt lat="50.673937" lon="6.380868">
        <ele>0.000000</ele>
        <time>2009-12-04T12:15:23Z</time>
      </trkpt>
      <trkpt lat="50.673941" lon="6.380627">
        <ele>0.000000</ele>
        <time>2009-12-04T12:15:23Z</time>
      </trkpt>
      <trkpt lat="50.673910" lon="6.380535">
        <ele>0.000000</ele>
        <time>2009-12-04T12:15:23Z</time>
      </trkpt>
      <trkpt lat="50.673798" lon="6.380165">
        <ele>0.000000</ele>
        <time>2009-12-04T12:15:23Z</time>
      </trkpt>
      <trkpt lat="50.673655" lon="6.379623">
        <ele>0.000000</ele>
        <time>2009-12-04T12:15:23Z</time>
      </trkpt>
      <trkpt lat="50.673611" lon="6.379361">
        <ele>0.000000</ele>
        <time>2009-12-04T12:15:23Z</time>
      </trkpt>
      <trkpt lat="50.673604" lon="6.379055">
        <ele>0.000000</ele>
        <time>2009-12-04T12:15:23Z</time>
      </trkpt>
      <trkpt lat="50.673611" lon="6.378878">
        <ele>0.000000</ele>
        <time>2009-12-04T12:15:23Z</time>
      </trkpt>
      <trkpt lat="50.673662" lon="6.378620">
        <ele>0.000000</ele>
        <time>2009-12-04T12:15:23Z</time>
      </trkpt>
      <trkpt lat="50.673930" lon="6.377901">
        <ele>0.000000</ele>
        <time>2009-12-04T12:15:23Z</time>
      </trkpt>
      <trkpt lat="50.673985" lon="6.377805">
        <ele>0.000000</ele>
        <time>2009-12-04T12:15:23Z</time>
      </trkpt>
      <trkpt lat="50.674226" lon="6.377494">
        <ele>0.000000</ele>
        <time>2009-12-04T12:15:23Z</time>
      </trkpt>
      <trkpt lat="50.674427" lon="6.377215">
        <ele>0.000000</ele>
        <time>2009-12-04T12:15:23Z</time>
      </trkpt>
      <trkpt lat="50.674624" lon="6.376813">
        <ele>0.000000</ele>
        <time>2009-12-04T12:15:23Z</time>
      </trkpt>
      <trkpt lat="50.674818" lon="6.376324">
        <ele>0.000000</ele>
        <time>2009-12-04T12:15:23Z</time>
      </trkpt>
      <trkpt lat="50.675039" lon="6.375766">
        <ele>0.000000</ele>
        <time>2009-12-04T12:15:23Z</time>
      </trkpt>
      <trkpt lat="50.675154" lon="6.375353">
        <ele>0.000000</ele>
        <time>2009-12-04T12:15:23Z</time>
      </trkpt>
      <trkpt lat="50.675195" lon="6.375123">
        <ele>0.000000</ele>
        <time>2009-12-04T12:15:23Z</time>
      </trkpt>
      <trkpt lat="50.675195" lon="6.374750">
        <ele>0.000000</ele>
        <time>2009-12-04T12:15:23Z</time>
      </trkpt>
      <trkpt lat="50.675183" lon="6.374594">
        <ele>0.000000</ele>
        <time>2009-12-04T12:15:23Z</time>
      </trkpt>
      <trkpt lat="50.675156" lon="6.374522">
        <ele>0.000000</ele>
        <time>2009-12-04T12:15:23Z</time>
      </trkpt>
      <trkpt lat="50.675134" lon="6.374468">
        <ele>0.000000</ele>
        <time>2009-12-04T12:15:23Z</time>
      </trkpt>
      <trkpt lat="50.675069" lon="6.374385">
        <ele>0.000000</ele>
        <time>2009-12-04T12:15:23Z</time>
      </trkpt>
      <trkpt lat="50.675137" lon="6.374272">
        <ele>0.000000</ele>
        <time>2009-12-04T12:15:23Z</time>
      </trkpt>
      <trkpt lat="50.675603" lon="6.373811">
        <ele>0.000000</ele>
        <time>2009-12-04T12:15:23Z</time>
      </trkpt>
      <trkpt lat="50.675880" lon="6.373543">
        <ele>0.000000</ele>
        <time>2009-12-04T12:15:23Z</time>
      </trkpt>
      <trkpt lat="50.676006" lon="6.373374">
        <ele>0.000000</ele>
        <time>2009-12-04T12:15:23Z</time>
      </trkpt>
      <trkpt lat="50.676121" lon="6.373073">
        <ele>0.000000</ele>
        <time>2009-12-04T12:15:23Z</time>
      </trkpt>
      <trkpt lat="50.676240" lon="6.372757">
        <ele>0.000000</ele>
        <time>2009-12-04T12:15:23Z</time>
      </trkpt>
      <trkpt lat="50.676341" lon="6.372537">
        <ele>0.000000</ele>
        <time>2009-12-04T12:15:23Z</time>
      </trkpt>
      <trkpt lat="50.676441" lon="6.372314">
        <ele>0.000000</ele>
        <time>2009-12-04T12:15:23Z</time>
      </trkpt>
      <trkpt lat="50.676684" lon="6.371872">
        <ele>0.000000</ele>
        <time>2009-12-04T12:15:23Z</time>
      </trkpt>
      <trkpt lat="50.676929" lon="6.371520">
        <ele>0.000000</ele>
        <time>2009-12-04T12:15:23Z</time>
      </trkpt>
      <trkpt lat="50.677111" lon="6.371252">
        <ele>0.000000</ele>
        <time>2009-12-04T12:15:23Z</time>
      </trkpt>
      <trkpt lat="50.677219" lon="6.371086">
        <ele>0.000000</ele>
        <time>2009-12-04T12:15:23Z</time>
      </trkpt>
      <trkpt lat="50.677248" lon="6.371027">
        <ele>0.000000</ele>
        <time>2009-12-04T12:15:23Z</time>
      </trkpt>
      <trkpt lat="50.677269" lon="6.370944">
        <ele>0.000000</ele>
        <time>2009-12-04T12:15:23Z</time>
      </trkpt>
      <trkpt lat="50.677325" lon="6.370515">
        <ele>0.000000</ele>
        <time>2009-12-04T12:15:23Z</time>
      </trkpt>
      <trkpt lat="50.677376" lon="6.370136">
        <ele>0.000000</ele>
        <time>2009-12-04T12:15:23Z</time>
      </trkpt>
      <trkpt lat="50.677447" lon="6.369742">
        <ele>0.000000</ele>
        <time>2009-12-04T12:15:23Z</time>
      </trkpt>
      <trkpt lat="50.677599" lon="6.368943">
        <ele>0.000000</ele>
        <time>2009-12-04T12:15:23Z</time>
      </trkpt>
      <trkpt lat="50.677707" lon="6.368363">
        <ele>0.000000</ele>
        <time>2009-12-04T12:15:23Z</time>
      </trkpt>
      <trkpt lat="50.677762" lon="6.368079">
        <ele>0.000000</ele>
        <time>2009-12-04T12:15:23Z</time>
      </trkpt>
      <trkpt lat="50.677954" lon="6.367403">
        <ele>0.000000</ele>
        <time>2009-12-04T12:15:23Z</time>
      </trkpt>
      <trkpt lat="50.678039" lon="6.367114">
        <ele>0.000000</ele>
        <time>2009-12-04T12:15:23Z</time>
      </trkpt>
      <trkpt lat="50.678098" lon="6.366811">
        <ele>0.000000</ele>
        <time>2009-12-04T12:15:23Z</time>
      </trkpt>
      <trkpt lat="50.678263" lon="6.365936">
        <ele>0.000000</ele>
        <time>2009-12-04T12:15:23Z</time>
      </trkpt>
      <trkpt lat="50.678362" lon="6.365424">
        <ele>0.000000</ele>
        <time>2009-12-04T12:15:23Z</time>
      </trkpt>
      <trkpt lat="50.678511" lon="6.364718">
        <ele>0.000000</ele>
        <time>2009-12-04T12:15:23Z</time>
      </trkpt>
      <trkpt lat="50.678652" lon="6.364048">
        <ele>0.000000</ele>
        <time>2009-12-04T12:15:23Z</time>
      </trkpt>
      <trkpt lat="50.678693" lon="6.363847">
        <ele>0.000000</ele>
        <time>2009-12-04T12:15:23Z</time>
      </trkpt>
      <trkpt lat="50.678802" lon="6.363468">
        <ele>0.000000</ele>
        <time>2009-12-04T12:15:23Z</time>
      </trkpt>
      <trkpt lat="50.678933" lon="6.362986">
        <ele>0.000000</ele>
        <time>2009-12-04T12:15:23Z</time>
      </trkpt>
      <trkpt lat="50.678985" lon="6.362833">
        <ele>0.000000</ele>
        <time>2009-12-04T12:15:23Z</time>
      </trkpt>
      <trkpt lat="50.679121" lon="6.362583">
        <ele>0.000000</ele>
        <time>2009-12-04T12:15:23Z</time>
      </trkpt>
      <trkpt lat="50.679252" lon="6.362345">
        <ele>0.000000</ele>
        <time>2009-12-04T12:15:23Z</time>
      </trkpt>
      <trkpt lat="50.679315" lon="6.362261">
        <ele>0.000000</ele>
        <time>2009-12-04T12:15:23Z</time>
      </trkpt>
      <trkpt lat="50.679375" lon="6.362205">
        <ele>0.000000</ele>
        <time>2009-12-04T12:15:23Z</time>
      </trkpt>
      <trkpt lat="50.679412" lon="6.362186">
        <ele>0.000000</ele>
        <time>2009-12-04T12:15:23Z</time>
      </trkpt>
      <trkpt lat="50.679487" lon="6.362149">
        <ele>0.000000</ele>
        <time>2009-12-04T12:15:23Z</time>
      </trkpt>
      <trkpt lat="50.679558" lon="6.362125">
        <ele>0.000000</ele>
        <time>2009-12-04T12:15:23Z</time>
      </trkpt>
      <trkpt lat="50.679643" lon="6.362122">
        <ele>0.000000</ele>
        <time>2009-12-04T12:15:23Z</time>
      </trkpt>
      <trkpt lat="50.679731" lon="6.362141">
        <ele>0.000000</ele>
        <time>2009-12-04T12:15:23Z</time>
      </trkpt>
      <trkpt lat="50.679833" lon="6.362162">
        <ele>0.000000</ele>
        <time>2009-12-04T12:15:23Z</time>
      </trkpt>
      <trkpt lat="50.679958" lon="6.362245">
        <ele>0.000000</ele>
        <time>2009-12-04T12:15:23Z</time>
      </trkpt>
      <trkpt lat="50.680031" lon="6.362331">
        <ele>0.000000</ele>
        <time>2009-12-04T12:15:23Z</time>
      </trkpt>
      <trkpt lat="50.680095" lon="6.362455">
        <ele>0.000000</ele>
        <time>2009-12-04T12:15:23Z</time>
      </trkpt>
      <trkpt lat="50.680134" lon="6.362621">
        <ele>0.000000</ele>
        <time>2009-12-04T12:15:23Z</time>
      </trkpt>
      <trkpt lat="50.680083" lon="6.362806">
        <ele>0.000000</ele>
        <time>2009-12-04T12:15:23Z</time>
      </trkpt>
      <trkpt lat="50.679917" lon="6.363155">
        <ele>0.000000</ele>
        <time>2009-12-04T12:15:23Z</time>
      </trkpt>
      <trkpt lat="50.679828" lon="6.363530">
        <ele>0.000000</ele>
        <time>2009-12-04T12:15:23Z</time>
      </trkpt>
      <trkpt lat="50.679655" lon="6.364442">
        <ele>0.000000</ele>
        <time>2009-12-04T12:15:23Z</time>
      </trkpt>
      <trkpt lat="50.679621" lon="6.364641">
        <ele>0.000000</ele>
        <time>2009-12-04T12:15:23Z</time>
      </trkpt>
      <trkpt lat="50.679641" lon="6.365343">
        <ele>0.000000</ele>
        <time>2009-12-04T12:15:23Z</time>
      </trkpt>
      <trkpt lat="50.679635" lon="6.365783">
        <ele>0.000000</ele>
        <time>2009-12-04T12:15:23Z</time>
      </trkpt>
      <trkpt lat="50.679573" lon="6.366320">
        <ele>0.000000</ele>
        <time>2009-12-04T12:15:23Z</time>
      </trkpt>
      <trkpt lat="50.679502" lon="6.367033">
        <ele>0.000000</ele>
        <time>2009-12-04T12:15:23Z</time>
      </trkpt>
      <trkpt lat="50.679444" lon="6.367714">
        <ele>0.000000</ele>
        <time>2009-12-04T12:15:23Z</time>
      </trkpt>
      <trkpt lat="50.679407" lon="6.368235">
        <ele>0.000000</ele>
        <time>2009-12-04T12:15:23Z</time>
      </trkpt>
      <trkpt lat="50.679400" lon="6.368943">
        <ele>0.000000</ele>
        <time>2009-12-04T12:15:23Z</time>
      </trkpt>
      <trkpt lat="50.679468" lon="6.369479">
        <ele>0.000000</ele>
        <time>2009-12-04T12:15:23Z</time>
      </trkpt>
      <trkpt lat="50.679523" lon="6.369705">
        <ele>0.000000</ele>
        <time>2009-12-04T12:15:23Z</time>
      </trkpt>
      <trkpt lat="50.679567" lon="6.369812">
        <ele>0.000000</ele>
        <time>2009-12-04T12:15:23Z</time>
      </trkpt>
      <trkpt lat="50.679917" lon="6.370139">
        <ele>0.000000</ele>
        <time>2009-12-04T12:15:23Z</time>
      </trkpt>
      <trkpt lat="50.680117" lon="6.370359">
        <ele>0.000000</ele>
        <time>2009-12-04T12:15:23Z</time>
      </trkpt>
      <trkpt lat="50.680325" lon="6.370611">
        <ele>0.000000</ele>
        <time>2009-12-04T12:15:23Z</time>
      </trkpt>
      <trkpt lat="50.680495" lon="6.370584">
        <ele>0.000000</ele>
        <time>2009-12-04T12:15:23Z</time>
      </trkpt>
      <trkpt lat="50.680576" lon="6.370499">
        <ele>0.000000</ele>
        <time>2009-12-04T12:15:23Z</time>
      </trkpt>
      <trkpt lat="50.680851" lon="6.370273">
        <ele>0.000000</ele>
        <time>2009-12-04T12:15:23Z</time>
      </trkpt>
      <trkpt lat="50.681055" lon="6.370112">
        <ele>0.000000</ele>
        <time>2009-12-04T12:15:23Z</time>
      </trkpt>
      <trkpt lat="50.681304" lon="6.369935">
        <ele>0.000000</ele>
        <time>2009-12-04T12:15:23Z</time>
      </trkpt>
      <trkpt lat="50.681423" lon="6.369882">
        <ele>0.000000</ele>
        <time>2009-12-04T12:15:23Z</time>
      </trkpt>
      <trkpt lat="50.681569" lon="6.369909">
        <ele>0.000000</ele>
        <time>2009-12-04T12:15:23Z</time>
      </trkpt>
      <trkpt lat="50.681820" lon="6.370000">
        <ele>0.000000</ele>
        <time>2009-12-04T12:15:23Z</time>
      </trkpt>
      <trkpt lat="50.682062" lon="6.370075">
        <ele>0.000000</ele>
        <time>2009-12-04T12:15:23Z</time>
      </trkpt>
      <trkpt lat="50.682361" lon="6.370155">
        <ele>0.000000</ele>
        <time>2009-12-04T12:15:23Z</time>
      </trkpt>
      <trkpt lat="50.682500" lon="6.370155">
        <ele>0.000000</ele>
        <time>2009-12-04T12:15:23Z</time>
      </trkpt>
      <trkpt lat="50.682721" lon="6.370144">
        <ele>0.000000</ele>
        <time>2009-12-04T12:15:23Z</time>
      </trkpt>
      <trkpt lat="50.682860" lon="6.370209">
        <ele>0.000000</ele>
        <time>2009-12-04T12:15:23Z</time>
      </trkpt>
      <trkpt lat="50.682928" lon="6.370300">
        <ele>0.000000</ele>
        <time>2009-12-04T12:15:23Z</time>
      </trkpt>
      <trkpt lat="50.683193" lon="6.370713">
        <ele>0.000000</ele>
        <time>2009-12-04T12:15:23Z</time>
      </trkpt>
      <trkpt lat="50.683547" lon="6.371132">
        <ele>0.000000</ele>
        <time>2009-12-04T12:15:23Z</time>
      </trkpt>
      <trkpt lat="50.683707" lon="6.371469">
        <ele>0.000000</ele>
        <time>2009-12-04T12:15:23Z</time>
      </trkpt>
      <trkpt lat="50.683839" lon="6.371759">
        <ele>0.000000</ele>
        <time>2009-12-04T12:15:23Z</time>
      </trkpt>
      <trkpt lat="50.684016" lon="6.372274">
        <ele>0.000000</ele>
        <time>2009-12-04T12:15:23Z</time>
      </trkpt>
      <trkpt lat="50.684026" lon="6.372457">
        <ele>0.000000</ele>
        <time>2009-12-04T12:15:23Z</time>
      </trkpt>
      <trkpt lat="50.683992" lon="6.372650">
        <ele>0.000000</ele>
        <time>2009-12-04T12:15:23Z</time>
      </trkpt>
      <trkpt lat="50.683951" lon="6.372934">
        <ele>0.000000</ele>
        <time>2009-12-04T12:15:23Z</time>
      </trkpt>
      <trkpt lat="50.683880" lon="6.373315">
        <ele>0.000000</ele>
        <time>2009-12-04T12:15:23Z</time>
      </trkpt>
      <trkpt lat="50.683873" lon="6.373551">
        <ele>0.000000</ele>
        <time>2009-12-04T12:15:23Z</time>
      </trkpt>
      <trkpt lat="50.684026" lon="6.373867">
        <ele>0.000000</ele>
        <time>2009-12-04T12:15:23Z</time>
      </trkpt>
      <trkpt lat="50.684108" lon="6.373937">
        <ele>0.000000</ele>
        <time>2009-12-04T12:15:23Z</time>
      </trkpt>
      <trkpt lat="50.684220" lon="6.374002">
        <ele>0.000000</ele>
        <time>2009-12-04T12:15:23Z</time>
      </trkpt>
      <trkpt lat="50.684363" lon="6.373953">
        <ele>0.000000</ele>
        <time>2009-12-04T12:15:23Z</time>
      </trkpt>
      <trkpt lat="50.684577" lon="6.373948">
        <ele>0.000000</ele>
        <time>2009-12-04T12:15:23Z</time>
      </trkpt>
      <trkpt lat="50.684832" lon="6.373932">
        <ele>0.000000</ele>
        <time>2009-12-04T12:15:23Z</time>
      </trkpt>
      <trkpt lat="50.685036" lon="6.373932">
        <ele>0.000000</ele>
        <time>2009-12-04T12:15:23Z</time>
      </trkpt>
      <trkpt lat="50.685155" lon="6.373878">
        <ele>0.000000</ele>
        <time>2009-12-04T12:15:23Z</time>
      </trkpt>
      <trkpt lat="50.685229" lon="6.373771">
        <ele>0.000000</ele>
        <time>2009-12-04T12:15:23Z</time>
      </trkpt>
      <trkpt lat="50.685297" lon="6.373803">
        <ele>0.000000</ele>
        <time>2009-12-04T12:15:23Z</time>
      </trkpt>
      <trkpt lat="50.685409" lon="6.373862">
        <ele>0.000000</ele>
        <time>2009-12-04T12:15:23Z</time>
      </trkpt>
      <trkpt lat="50.685539" lon="6.373814">
        <ele>0.000000</ele>
        <time>2009-12-04T12:15:23Z</time>
      </trkpt>
    </trkseg>
  </trk>

</gpx>
